FW3073 Weather Reports


Display with metric or nautical units.
time (UTC)temp
F
wind
direction
speed
MPH
gust
MPH
rain 1hr
in
rain 24hr
in
rain mn
in
humidity
%
barometer
mb
20260507210004 59 295 1.0 4.0 0.00 0.11 0.11 53 999.2
20260507205003 59 275 1.0 4.0 0.00 0.11 0.11 54 999.2
20260507204003 59 285 1.0 4.0 0.00 0.11 0.11 56 998.8
20260507203003 60 298 3.0 8.0 0.00 0.11 0.11 52 998.8
20260507202004 61 275 2.0 6.0 0.00 0.11 0.11 53 998.8
20260507201003 61 279 2.0 7.0 0.00 0.11 0.11 49 998.8
20260507200004 62 288 3.0 8.0 0.00 0.11 0.11 51 998.8
20260507195004 62 284 3.0 7.0 0.00 0.11 0.11 46 998.8
20260507194003 62 292 3.0 8.0 0.00 0.11 0.11 52 998.5
20260507193003 60 279 2.0 7.0 0.00 0.11 0.11 55 998.8
20260507192004 60 272 3.0 9.0 0.00 0.11 0.11 57 998.8
20260507191004 58 286 4.0 9.0 0.00 0.11 0.11 63 998.5
20260507190004 61 288 3.0 9.0 0.00 0.11 0.11 63 998.8
20260507185003 59 267 4.0 10.0 0.00 0.11 0.11 63 998.5
20260507184003 58 287 4.0 11.0 0.00 0.11 0.11 66 998.5
20260507183003 58 269 2.0 9.0 0.00 0.11 0.11 70 998.8
20260507182003 57 295 3.0 10.0 0.00 0.11 0.11 72 998.8
20260507181003 57 303 2.0 8.0 0.00 0.11 0.11 72 998.8
20260507180004 58 300 3.0 7.0 0.00 0.11 0.11 75 998.8
20260507175003 57 275 3.0 9.0 0.00 0.11 0.11 76 998.8
20260507174003 57 247 1.0 6.0 0.00 0.11 0.11 80 999.2
20260507173004 55 266 2.0 7.0 0.00 0.11 0.11 84 998.8
20260507172003 55 227 2.0 8.0 0.01 0.11 0.11 92 999.2
20260507171003 53 253 1.0 6.0 0.01 0.11 0.11 91 999.5
20260507170004 52 282 2.0 6.0 0.01 0.11 0.11 93 999.5
20260507165004 52 287 1.0 4.0 0.01 0.11 0.11 95 999.8
20260507164004 51 262 1.0 4.0 0.01 0.11 0.11 96 999.5
20260507163003 51 219 1.0 3.0 0.01 0.11 0.11 96 999.5
20260507162003 51 273 1.0 4.0 0.00 0.10 0.10 96 999.8
20260507161004 51 275 1.0 6.0 0.00 0.10 0.10 95 999.8
20260507160004 51 264 1.0 6.0 0.00 0.10 0.10 96 999.8
20260507155003 51 256 1.0 4.0 0.00 0.10 0.10 96 1000.2
20260507154004 51 261 1.0 4.0 0.00 0.10 0.10 96 999.5
20260507153003 51 277 1.0 6.0 0.00 0.10 0.10 95 1000.5
20260507152003 51 270 1.0 6.0 0.00 0.10 0.10 95 1000.9
20260507151003 51 264 1.0 3.0 0.00 0.10 0.10 95 1000.9
20260507150004 51 282 1.0 3.0 0.00 0.10 0.10 95 1000.2
20260507145003 51 255 1.0 3.0 0.00 0.10 0.10 96 1000.5
20260507144003 51 264 1.0 4.0 0.00 0.10 0.10 96 1000.9
20260507143004 51 211 0.0 3.0 0.01 0.10 0.10 96 1000.9
20260507142004 51 177 0.0 3.0 0.02 0.10 0.10 96 1000.2
20260507141004 51 181 1.0 3.0 0.03 0.10 0.10 96 1000.9
20260507140003 51 205 0.0 1.0 0.03 0.10 0.10 96 1000.9
20260507135003 51 203 1.0 3.0 0.03 0.10 0.10 95 1000.2
20260507134003 52 206 0.0 3.0 0.03 0.10 0.10 95 1000.2
20260507133003 52 206 1.0 4.0 0.02 0.09 0.09 94 1000.9
20260507132003 52 249 1.0 8.0 0.01 0.08 0.08 92 1001.2
20260507131003 53 192 1.0 2.0 0.00 0.07 0.07 90 1000.9
20260507130004 53 202 1.0 4.0 0.00 0.07 0.07 89 1000.9
20260507125004 53 204 2.0 7.0 0.00 0.07 0.07 88 1000.9
20260507124003 53 184 2.0 6.0 0.00 0.07 0.07 88 1001.2
20260507123004 53 202 2.0 7.0 0.00 0.07 0.07 89 1000.9
20260507122004 53 192 2.0 6.0 0.00 0.07 0.07 89 1000.5
20260507121004 53 203 2.0 7.0 0.00 0.07 0.07 90 1000.5
20260507120004 53 194 2.0 6.0 0.00 0.07 0.07 91 1000.5
20260507115003 52 190 3.0 8.0 0.00 0.07 0.07 92 1000.2
20260507114004 53 208 3.0 14.0 0.00 0.07 0.07 91 1000.9
20260507113004 53 199 1.0 7.0 0.01 0.07 0.07 94 1000.9
20260507112004 53 183 1.0 4.0 0.02 0.07 0.07 95 1000.9
20260507111004 53 175 1.0 4.0 0.02 0.07 0.07 94 999.8
20260507110004 53 172 1.0 4.0 0.02 0.07 0.07 96 999.8
20260507105003 52 192 1.0 4.0 0.02 0.07 0.07 95 999.8
20260507104004 52 170 1.0 2.0 0.02 0.07 0.07 95 999.8
20260507103003 53 185 2.0 8.0 0.01 0.06 0.06 94 1000.2
20260507102003 53 167 3.0 6.0 0.00 0.05 0.05 91 1000.2
20260507101003 54 191 2.0 9.0 0.00 0.05 0.05 91 1000.5
20260507100004 54 184 3.0 8.0 0.00 0.05 0.05 91 1000.2
20260507095003 55 222 3.0 13.0 0.00 0.05 0.05 92 1000.2
20260507094004 55 201 2.0 8.0 0.00 0.05 0.05 93 1000.2
20260507093003 55 188 2.0 10.0 0.00 0.05 0.05 96 999.8
20260507092003 55 179 2.0 6.0 0.00 0.05 0.05 98 999.8
20260507091003 55 171 2.0 4.0 0.01 0.05 0.05 98 999.8
20260507090004 55 162 0.0 2.0 0.01 0.05 0.05 98 999.8
20260507085003 54 189 1.0 3.0 0.01 0.05 0.05 98 999.8
20260507084003 54 166 1.0 2.0 0.01 0.05 0.05 98 999.8
20260507083004 54 162 1.0 4.0 0.01 0.05 0.05 97 999.8
20260507082003 54 169 1.0 3.0 0.01 0.05 0.05 97 999.8
20260507081003 54 169 2.0 6.0 0.01 0.04 0.04 97 999.8
20260507080004 54 169 2.0 6.0 0.01 0.04 0.04 97 1000.2
20260507075004 54 161 2.0 6.0 0.01 0.04 0.04 96 1000.2
20260507074003 54 158 2.0 10.0 0.01 0.04 0.04 96 1000.5
20260507073004 55 154 2.0 4.0 0.01 0.04 0.04 96 1000.9
20260507072003 54 165 2.0 9.0 0.02 0.04 0.04 97 1001.2
20260507071003 54 166 2.0 4.0 0.01 0.03 0.03 96 1001.5
20260507070007 54 160 2.0 8.0 0.01 0.03 0.03 96 1001.9
20260507065004 54 171 2.0 6.0 0.01 0.03 0.03 95 1001.9
20260507064003 56 175 2.0 8.0 0.01 0.03 0.03 95 1001.9
20260507063003 56 169 2.0 8.0 0.01 0.03 0.03 95 1001.9
20260507062003 56 171 2.0 9.0 0.00 0.02 0.02 94 1002.2
20260507061004 56 183 2.0 4.0 0.01 0.02 0.02 94 1002.6
20260507060004 55 165 2.0 7.0 0.01 0.02 0.02 94 1002.9
20260507055003 55 168 2.0 6.0 0.02 0.02 0.02 94 1003.2
20260507054004 56 157 1.0 6.0 0.02 0.02 0.02 94 1003.6
20260507053004 56 164 1.0 4.0 0.02 0.02 0.02 94 1003.6
20260507052003 56 172 2.0 7.0 0.02 0.02 0.02 92 1003.9
20260507051003 56 164 2.0 6.0 0.01 0.01 0.01 91 1004.6
20260507050004 57 159 2.0 6.0 0.01 0.01 0.01 89 1004.3
20260507045003 58 160 1.0 7.0 0.00 0.00 0.00 86 1004.9
20260507044004 58 171 1.0 3.0 0.00 0.00 0.00 83 1005.3
20260507043003 59 181 2.0 9.0 0.00 0.00 0.00 82 1005.3
20260507042003 59 172 2.0 9.0 0.00 0.00 0.00 82 1005.3
20260507041004 59 179 2.0 8.0 0.00 0.00 0.00 82 1005.3
20260507040004 59 193 2.0 7.0 0.00 0.00 0.00 82 1006.0
20260507035004 59 177 2.0 4.0 0.00 0.00 0.00 82 1006.0
20260507034004 59 178 3.0 7.0 0.00 0.00 0.00 82 1006.3
20260507033003 58 161 2.0 6.0 0.00 0.00 0.00 84 1006.6
20260507032003 57 191 1.0 6.0 0.00 0.00 0.00 86 1006.3
20260507031003 58 174 1.0 6.0 0.00 0.00 0.00 85 1006.6
20260507030004 58 167 1.0 3.0 0.00 0.00 0.00 85 1006.6
20260507025004 59 159 2.0 4.0 0.00 0.00 0.00 81 1007.0
20260507024004 60 183 2.0 8.0 0.00 0.00 0.00 79 1007.3
20260507023004 60 174 2.0 7.0 0.00 0.00 0.00 78 1007.3
20260507022003 60 178 3.0 9.0 0.00 0.00 0.00 76 1007.0
20260507021004 60 176 2.0 8.0 0.00 0.00 0.00 78 1007.7
20260507020004 60 173 3.0 11.0 0.00 0.00 0.00 80 1007.7
20260507015004 60 179 4.0 10.0 0.00 0.00 0.00 81 1008.0
20260507014003 61 173 2.0 7.0 0.00 0.00 0.00 79 1008.7
20260507013004 61 170 3.0 11.0 0.00 0.00 0.00 79 1008.7
20260507012003 61 183 3.0 10.0 0.00 0.00 0.00 78 1008.7
20260507011003 61 190 2.0 8.0 0.00 0.00 0.00 80 1009.0
20260507010004 61 175 3.0 8.0 0.00 0.00 0.00 81 1009.0
20260507005004 62 182 3.0 8.0 0.00 0.00 0.00 80 1009.0
20260507004003 62 194 3.0 14.0 0.00 0.00 0.00 75 1009.0
20260507003003 62 194 3.0 10.0 0.00 0.00 0.00 75 1009.4
20260507002004 62 169 3.0 8.0 0.00 0.00 0.00 75 1009.0
20260507001003 63 192 3.0 11.0 0.00 0.00 0.00 74 1009.0
20260507000004 63 179 3.0 13.0 0.00 0.00 0.00 73 1009.0
20260506235003 64 174 4.0 13.0 0.00 0.00 0.00 72 1009.0
20260506234003 64 174 3.0 13.0 0.00 0.00 0.00 72 1009.0
20260506233003 64 184 4.0 10.0 0.00 0.00 0.00 71 1009.0
20260506232003 64 181 3.0 9.0 0.00 0.00 0.00 70 1009.0
20260506231003 64 179 4.0 17.0 0.00 0.00 0.00 70 1008.7
20260506230004 64 167 3.0 13.0 0.00 0.00 0.00 70 1008.7
20260506225004 64 180 4.0 13.0 0.00 0.00 0.00 69 1008.7
20260506224004 65 184 4.0 15.0 0.00 0.00 0.00 69 1008.7
20260506223004 65 175 5.0 14.0 0.00 0.00 0.00 68 1008.7
20260506222003 65 180 4.0 10.0 0.00 0.00 0.00 68 1008.7
20260506221003 65 194 4.0 14.0 0.00 0.00 0.00 68 1008.7
20260506220004 65 189 4.0 13.0 0.00 0.00 0.00 68 1008.7
20260506215004 65 188 4.0 11.0 0.00 0.00 0.00 68 1009.0
20260506214003 66 191 4.0 14.0 0.00 0.00 0.00 67 1009.0
20260506213004 65 185 4.0 16.0 0.00 0.00 0.00 67 1009.0
20260506212003 66 186 4.0 11.0 0.00 0.00 0.00 67 1009.0
20260506211003 66 186 4.0 10.0 0.00 0.00 0.00 67 1009.0